Flag for U.S.A. Weather past 2 weeks in Lexington-Fayette, Kentucky, U.S.A.

Now
58 °F

Fog.


Feels Like: 58 °F
Forecast: 57 / 81 °F
Wind: 3 mph from South

Location: Blue Grass Airport

Current Time: Jul 31, 2014 at 7:53:21 AM

Latest Report: Jul 31, 2014 at 6:54 AM


Visibility: 5 mi

Pressure: 30.09 "Hg

Humidity: 90%

Dew point: 55 °F

Location of Lexington-FayetteLocation

Historic Weather in Lexington-Fayette — Graph

°F

Lexington-Fayette temperature yesterday

Maximum temperature yesterday: 80 °F (at 3:54 PM)
Minimum temperature yesterday: 58 °F (at 12:54 AM)
Average temperature yesterday: 69 °F

Past Weeks' High & Low Weather Summary

 TemperatureHumidityPressure
High90 °F (Jul 21, 4:54 PM)96% (Jul 21, 1:56 AM)30.17 "Hg (Jul 21, 1:56 AM)
Low52 °F (Jul 29, 6:54 AM)36% (Jul 17, 4:54 PM)29.72 "Hg (Jul 27, 5:54 PM)
Average71 °F72%30.02 "Hg
* Reported Jul 16 6:54 AM — Jul 31 6:54 AM, Lexington-Fayette, Weather by CustomWeather, © 2014

Note: Actual official high and low records may vary slightly from our data, if they occured in-between our weather recording intervals... More about our weather records

Advertising

Lexington-Fayette weather history for previous 24 hours

 ConditionsComfort  
Time TempWeatherWind HumidityBarometerVisibility
6:54 AM
Jul 31
58 °FFog.3 mph90%30.09 "Hg5 mi
5:54 AM61 °FClear.3 mph87%30.08 "Hg9 mi
4:54 AM60 °FClear.5 mph90%30.07 "Hg10 mi
3:54 AM62 °FClear.3 mph83%30.07 "Hg10 mi
2:54 AM62 °FClear.3 mph83%30.08 "Hg10 mi
1:54 AM61 °FClear.5 mph87%30.08 "Hg10 mi
12:54 AM64 °FClear.No wind81%30.07 "Hg10 mi
11:54 PM
Jul 30
65 °FClear.3 mph76%30.07 "Hg10 mi
10:54 PM67 °FClear.5 mph71%30.07 "Hg10 mi
9:54 PM71 °FClear.No wind59%30.06 "Hg10 mi
8:54 PM72 °FSunny.No wind57%30.05 "Hg10 mi
7:54 PM76 °FSunny.6 mph50%30.05 "Hg10 mi
6:54 PM78 °FSunny.9 mph43%30.04 "Hg10 mi
5:54 PM79 °FSunny.10 mph45%30.04 "Hg10 mi
4:54 PM80 °FSunny.14 mph45%30.04 "Hg10 mi
3:54 PM80 °FScattered clouds.13 mph47%30.06 "Hg10 mi
2:54 PM78 °FPassing clouds.7 mph48%30.06 "Hg10 mi
1:54 PM78 °FScattered clouds.8 mph50%30.08 "Hg10 mi
12:54 PM77 °FScattered clouds.7 mph52%30.09 "Hg10 mi
11:54 AM76 °FSunny.7 mph56%30.09 "Hg10 mi
10:54 AM72 °FSunny.7 mph64%30.10 "Hg10 mi
9:54 AM68 °FScattered clouds.6 mph70%30.10 "Hg10 mi
8:54 AM63 °FScattered clouds.6 mph78%30.09 "Hg10 mi
7:54 AM61 °FMostly cloudy.6 mph81%30.09 "Hg10 mi
Weather by CustomWeather, © 2014

See weather overviewHow to use our weather pages